Data No,UTC Date,UTC Time,Latitude,Longitude,Course(deg),Temp(degC),Sal(psu)
546,2023/9/8,9:05,42-36.83N,141-36.94E,207,22.915,
547,2023/9/8,9:06,42-36.58N,141-36.86E,187,22.828,
548,2023/9/8,9:07,42-36.33N,141-36.84E,181,22.452,
549,2023/9/8,9:08,42-36.06N,141-36.84E,179,22.538,
550,2023/9/8,9:09,42-35.81N,141-36.85E,178,22.882,
551,2023/9/8,9:10,42-35.54N,141-36.85E,180,23.016,
552,2023/9/8,9:11,42-35.27N,141-36.85E,180,23.095,
553,2023/9/8,9:12,42-35.00N,141-36.85E,180,23.13,
554,2023/9/8,9:13,42-34.73N,141-36.84E,180,23.104,
555,2023/9/8,9:14,42-34.48N,141-36.83E,181,23.104,
556,2023/9/8,9:15,42-34.19N,141-36.82E,181,23.099,
557,2023/9/8,9:16,42-33.94N,141-36.82E,181,23.085,
558,2023/9/8,9:17,42-33.67N,141-36.81E,181,23.137,
559,2023/9/8,9:18,42-33.41N,141-36.78E,185,23.143,
560,2023/9/8,9:19,42-33.13N,141-36.74E,185,23.179,
561,2023/9/8,9:20,42-32.87N,141-36.70E,186,23.193,
562,2023/9/8,9:21,42-32.61N,141-36.67E,186,23.201,
563,2023/9/8,9:22,42-32.34N,141-36.63E,186,23.206,
564,2023/9/8,9:23,42-32.08N,141-36.59E,186,23.213,
565,2023/9/8,9:24,42-31.81N,141-36.55E,185,23.218,
566,2023/9/8,9:25,42-31.55N,141-36.52E,185,23.271,
567,2023/9/8,9:26,42-31.29N,141-36.49E,185,23.322,
568,2023/9/8,9:27,42-31.02N,141-36.45E,185,23.357,
569,2023/9/8,9:28,42-30.77N,141-36.42E,185,23.377,
570,2023/9/8,9:29,42-30.50N,141-36.38E,185,23.396,
571,2023/9/8,9:30,42-30.24N,141-36.35E,185,23.427,
572,2023/9/8,9:31,42-29.98N,141-36.31E,185,23.444,
573,2023/9/8,9:32,42-29.71N,141-36.28E,185,23.443,
574,2023/9/8,9:33,42-29.46N,141-36.24E,186,23.435,
575,2023/9/8,9:34,42-29.20N,141-36.20E,186,23.433,
576,2023/9/8,9:35,42-28.93N,141-36.16E,186,23.436,
577,2023/9/8,9:36,42-28.68N,141-36.13E,186,23.419,
578,2023/9/8,9:37,42-28.41N,141-36.09E,185,23.408,
579,2023/9/8,9:38,42-28.16N,141-36.07E,180,23.392,
580,2023/9/8,9:39,42-27.89N,141-36.08E,179,23.383,
581,2023/9/8,9:40,42-27.63N,141-36.08E,178,23.372,
582,2023/9/8,9:41,42-27.37N,141-36.09E,179,23.367,
583,2023/9/8,9:42,42-27.10N,141-36.09E,179,23.355,
584,2023/9/8,9:43,42-26.83N,141-36.09E,179,23.34,
585,2023/9/8,9:44,42-26.57N,141-36.10E,179,23.309,
586,2023/9/8,9:45,42-26.30N,141-36.10E,179,23.25,
587,2023/9/8,9:46,42-26.04N,141-36.10E,179,23.222,
588,2023/9/8,9:47,42-25.77N,141-36.10E,179,23.206,
589,2023/9/8,9:48,42-25.51N,141-36.11E,179,23.19,
590,2023/9/8,9:49,42-25.24N,141-36.11E,179,23.189,
591,2023/9/8,9:50,42-24.97N,141-36.11E,179,23.194,
592,2023/9/8,9:51,42-24.71N,141-36.11E,179,23.192,
593,2023/9/8,9:52,42-24.45N,141-36.11E,179,23.178,
594,2023/9/8,9:53,42-24.18N,141-36.12E,179,23.149,
595,2023/9/8,9:54,42-23.91N,141-36.09E,188,23.137,
596,2023/9/8,9:55,42-23.65N,141-36.01E,194,23.128,
597,2023/9/8,9:56,42-23.39N,141-35.92E,192,23.119,
598,2023/9/8,9:57,42-23.13N,141-35.85E,192,23.105,
599,2023/9/8,9:58,42-22.87N,141-35.77E,192,23.102,
600,2023/9/8,9:59,42-22.60N,141-35.68E,194,23.092,
601,2023/9/8,10:00,42-22.34N,141-35.59E,194,23.081,
602,2023/9/8,10:01,42-22.07N,141-35.49E,195,23.065,
603,2023/9/8,10:02,42-21.82N,141-35.40E,195,23.052,
604,2023/9/8,10:03,42-21.56N,141-35.30E,195,23.038,
605,2023/9/8,10:04,42-21.30N,141-35.20E,195,23.028,
606,2023/9/8,10:05,42-21.04N,141-35.10E,195,23.021,
607,2023/9/8,10:06,42-20.78N,141-35.00E,195,23.013,
608,2023/9/8,10:07,42-20.52N,141-34.90E,196,22.997,
609,2023/9/8,10:08,42-20.25N,141-34.82E,191,22.971,
610,2023/9/8,10:09,42-19.99N,141-34.76E,189,22.946,
611,2023/9/8,10:10,42-19.72N,141-34.70E,187,22.876,
612,2023/9/8,10:11,42-19.46N,141-34.66E,187,22.825,
613,2023/9/8,10:12,42-19.19N,141-34.61E,188,22.804,
614,2023/9/8,10:13,42-18.91N,141-34.56E,187,22.749,
615,2023/9/8,10:14,42-18.65N,141-34.51E,188,22.764,
616,2023/9/8,10:15,42-18.38N,141-34.46E,186,22.769,
617,2023/9/8,10:16,42-18.12N,141-34.44E,182,22.767,
618,2023/9/8,10:17,42-17.85N,141-34.43E,182,22.756,
619,2023/9/8,10:18,42-17.57N,141-34.41E,183,22.774,
620,2023/9/8,10:19,42-17.30N,141-34.39E,182,22.758,
621,2023/9/8,10:20,42-17.03N,141-34.37E,182,22.732,
622,2023/9/8,10:21,42-16.76N,141-34.36E,182,22.716,
623,2023/9/8,10:22,42-16.48N,141-34.34E,182,22.701,
624,2023/9/8,10:23,42-16.20N,141-34.32E,182,22.687,
625,2023/9/8,10:24,42-15.93N,141-34.31E,182,22.674,
626,2023/9/8,10:25,42-15.65N,141-34.30E,182,22.659,
627,2023/9/8,10:26,42-15.38N,141-34.29E,181,22.651,
628,2023/9/8,10:27,42-15.11N,141-34.27E,182,22.645,
629,2023/9/8,10:28,42-14.83N,141-34.25E,182,22.639,
630,2023/9/8,10:29,42-14.57N,141-34.25E,180,22.635,
631,2023/9/8,10:30,42-14.29N,141-34.24E,181,22.66,
632,2023/9/8,10:31,42-14.02N,141-34.23E,180,22.719,
633,2023/9/8,10:32,42-13.76N,141-34.22E,182,22.728,
634,2023/9/8,10:33,42-13.48N,141-34.20E,182,22.716,
635,2023/9/8,10:34,42-13.21N,141-34.19E,181,22.678,
636,2023/9/8,10:35,42-12.94N,141-34.18E,181,22.688,
637,2023/9/8,10:36,42-12.67N,141-34.17E,182,22.71,
638,2023/9/8,10:37,42-12.41N,141-34.15E,181,22.72,
639,2023/9/8,10:38,42-12.14N,141-34.13E,182,22.727,
640,2023/9/8,10:39,42-11.88N,141-34.12E,181,22.749,
641,2023/9/8,10:40,42-11.60N,141-34.12E,179,22.788,
642,2023/9/8,10:41,42-11.33N,141-34.12E,179,22.807,
643,2023/9/8,10:42,42-11.07N,141-34.13E,179,22.823,
644,2023/9/8,10:43,42-10.80N,141-34.14E,178,22.831,
645,2023/9/8,10:44,42-10.54N,141-34.14E,179,22.834,
646,2023/9/8,10:45,42-10.27N,141-34.14E,179,22.825,
647,2023/9/8,10:46,42-09.99N,141-34.15E,179,22.818,
648,2023/9/8,10:47,42-09.73N,141-34.15E,179,22.797,
649,2023/9/8,10:48,42-09.46N,141-34.16E,178,22.779,
650,2023/9/8,10:49,42-09.18N,141-34.16E,179,22.759,
651,2023/9/8,10:50,42-08.92N,141-34.16E,179,22.724,
652,2023/9/8,10:51,42-08.66N,141-34.16E,179,22.678,
653,2023/9/8,10:52,42-08.38N,141-34.16E,179,22.628,
654,2023/9/8,10:53,42-08.10N,141-34.16E,179,22.596,
655,2023/9/8,10:54,42-07.84N,141-34.17E,179,22.56,
656,2023/9/8,10:55,42-07.56N,141-34.17E,179,22.468,
657,2023/9/8,10:56,42-07.28N,141-34.17E,179,22.449,
658,2023/9/8,10:57,42-07.03N,141-34.17E,179,22.464,
659,2023/9/8,10:58,42-06.75N,141-34.17E,179,22.458,
660,2023/9/8,10:59,42-06.46N,141-34.17E,179,22.442,
661,2023/9/8,11:00,42-06.17N,141-34.17E,179,22.405,
662,2023/9/8,11:01,42-05.90N,141-34.17E,179,22.361,
663,2023/9/8,11:02,42-05.64N,141-34.17E,179,22.31,
664,2023/9/8,11:03,42-05.41N,141-34.18E,179,22.296,
665,2023/9/8,11:04,42-05.13N,141-34.18E,179,22.304,
666,2023/9/8,11:05,42-04.87N,141-34.18E,180,22.309,
667,2023/9/8,11:06,42-04.60N,141-34.17E,181,22.426,
668,2023/9/8,11:07,42-04.34N,141-34.15E,182,22.623,
669,2023/9/8,11:08,42-04.07N,141-34.14E,181,22.855,
670,2023/9/8,11:09,42-03.81N,141-34.12E,182,22.915,
671,2023/9/8,11:10,42-03.54N,141-34.11E,182,23.067,
672,2023/9/8,11:11,42-03.27N,141-34.09E,182,23.128,
673,2023/9/8,11:12,42-03.02N,141-34.08E,182,23.162,
674,2023/9/8,11:13,42-02.74N,141-34.07E,182,23.182,
675,2023/9/8,11:14,42-02.48N,141-34.05E,182,23.201,
676,2023/9/8,11:15,42-02.22N,141-34.04E,181,23.207,
677,2023/9/8,11:16,42-01.95N,141-34.02E,182,23.198,
678,2023/9/8,11:17,42-01.69N,141-34.00E,183,23.189,
679,2023/9/8,11:18,42-01.41N,141-33.96E,187,23.178,
680,2023/9/8,11:19,42-01.16N,141-33.92E,187,23.169,
681,2023/9/8,11:20,42-00.89N,141-33.87E,187,23.146,
682,2023/9/8,11:21,42-00.63N,141-33.82E,187,23.125,
683,2023/9/8,11:22,42-00.36N,141-33.77E,187,23.112,
684,2023/9/8,11:23,42-00.09N,141-33.72E,187,23.108,
685,2023/9/8,11:24,41-59.82N,141-33.67E,187,23.107,
686,2023/9/8,11:25,41-59.56N,141-33.62E,188,23.111,
687,2023/9/8,11:26,41-59.29N,141-33.57E,187,23.11,
688,2023/9/8,11:27,41-59.03N,141-33.53E,188,23.11,
689,2023/9/8,11:28,41-58.76N,141-33.47E,188,23.111,
690,2023/9/8,11:29,41-58.50N,141-33.42E,187,23.107,
691,2023/9/8,11:30,41-58.24N,141-33.37E,188,23.108,
692,2023/9/8,11:31,41-57.97N,141-33.30E,191,23.118,
693,2023/9/8,11:32,41-57.72N,141-33.23E,192,23.111,
694,2023/9/8,11:33,41-57.46N,141-33.14E,192,23.123,
695,2023/9/8,11:34,41-57.21N,141-33.07E,193,23.128,
696,2023/9/8,11:35,41-56.95N,141-32.98E,193,23.134,
697,2023/9/8,11:36,41-56.70N,141-32.90E,193,23.147,
698,2023/9/8,11:37,41-56.44N,141-32.83E,192,23.154,
699,2023/9/8,11:38,41-56.18N,141-32.74E,193,23.159,
700,2023/9/8,11:39,41-55.94N,141-32.66E,192,23.162,
701,2023/9/8,11:40,41-55.67N,141-32.58E,193,23.169,
702,2023/9/8,11:41,41-55.42N,141-32.50E,193,23.174,
703,2023/9/8,11:42,41-55.17N,141-32.42E,193,23.171,
704,2023/9/8,11:43,41-54.91N,141-32.34E,193,23.165,
705,2023/9/8,11:44,41-54.65N,141-32.26E,193,23.198,
706,2023/9/8,11:45,41-54.40N,141-32.18E,192,23.212,
707,2023/9/8,11:46,41-54.16N,141-32.11E,192,23.229,
708,2023/9/8,11:47,41-53.91N,141-32.06E,182,23.24,
709,2023/9/8,11:48,41-53.67N,141-32.12E,165,23.221,
710,2023/9/8,11:49,41-53.43N,141-32.21E,162,23.195,
711,2023/9/8,11:50,41-53.20N,141-32.32E,158,23.15,
712,2023/9/8,11:51,41-52.96N,141-32.45E,157,23.099,
713,2023/9/8,11:52,41-52.73N,141-32.57E,158,23.023,
714,2023/9/8,11:53,41-52.49N,141-32.70E,159,22.951,
715,2023/9/8,11:54,41-52.24N,141-32.82E,160,22.899,
716,2023/9/8,11:55,41-52.01N,141-32.93E,160,22.87,
717,2023/9/8,11:56,41-51.76N,141-33.05E,160,22.823,
718,2023/9/8,11:57,41-51.52N,141-33.17E,160,22.784,
719,2023/9/8,11:58,41-51.27N,141-33.28E,160,22.745,
720,2023/9/8,11:59,41-51.03N,141-33.39E,160,22.704,
721,2023/9/8,12:00,41-50.78N,141-33.51E,160,22.676,
722,2023/9/8,12:01,41-50.54N,141-33.63E,158,22.672,
723,2023/9/8,12:02,41-50.30N,141-33.76E,157,23.185,
724,2023/9/8,12:03,41-50.06N,141-33.89E,159,23.336,
725,2023/9/8,12:04,41-49.82N,141-34.02E,158,23.46,
726,2023/9/8,12:05,41-49.57N,141-34.14E,159,23.493,
727,2023/9/8,12:06,41-49.32N,141-34.27E,157,23.445,
728,2023/9/8,12:07,41-49.08N,141-34.40E,158,23.569,
729,2023/9/8,12:08,41-48.84N,141-34.54E,157,23.627,
730,2023/9/8,12:09,41-48.60N,141-34.67E,157,23.683,
731,2023/9/8,12:10,41-48.36N,141-34.80E,157,23.771,
732,2023/9/8,12:11,41-48.11N,141-34.94E,157,24.043,
733,2023/9/8,12:12,41-47.87N,141-35.07E,157,24.498,
734,2023/9/8,12:13,41-47.62N,141-35.21E,157,24.693,
735,2023/9/8,12:14,41-47.38N,141-35.35E,156,24.789,
736,2023/9/8,12:15,41-47.14N,141-35.48E,156,24.679,
737,2023/9/8,12:16,41-46.89N,141-35.63E,156,24.723,
738,2023/9/8,12:17,41-46.65N,141-35.76E,157,24.682,
739,2023/9/8,12:18,41-46.39N,141-35.90E,156,24.655,
740,2023/9/8,12:19,41-46.16N,141-36.04E,156,24.75,
741,2023/9/8,12:20,41-45.90N,141-36.16E,165,24.799,
742,2023/9/8,12:21,41-45.64N,141-36.20E,173,24.924,
743,2023/9/8,12:22,41-45.39N,141-36.24E,172,25.448,
744,2023/9/8,12:23,41-45.13N,141-36.29E,173,25.506,
745,2023/9/8,12:24,41-44.88N,141-36.32E,174,25.499,
746,2023/9/8,12:25,41-44.63N,141-36.35E,173,25.441,
747,2023/9/8,12:26,41-44.38N,141-36.39E,173,25.183,
748,2023/9/8,12:27,41-44.13N,141-36.42E,174,25.476,
749,2023/9/8,12:28,41-43.87N,141-36.45E,175,25.651,
750,2023/9/8,12:29,41-43.63N,141-36.47E,176,25.59,
751,2023/9/8,12:30,41-43.37N,141-36.48E,177,25.498,
752,2023/9/8,12:31,41-43.11N,141-36.50E,177,25.608,
753,2023/9/8,12:32,41-42.87N,141-36.52E,177,25.649,
754,2023/9/8,12:33,41-42.61N,141-36.54E,177,25.481,
755,2023/9/8,12:34,41-42.36N,141-36.55E,176,25.528,
756,2023/9/8,12:35,41-42.11N,141-36.57E,177,25.632,
757,2023/9/8,12:36,41-41.86N,141-36.58E,177,25.669,
758,2023/9/8,12:37,41-41.61N,141-36.60E,177,25.686,
759,2023/9/8,12:38,41-41.36N,141-36.61E,177,25.631,
760,2023/9/8,12:39,41-41.10N,141-36.63E,176,25.533,
761,2023/9/8,12:40,41-40.86N,141-36.65E,176,25.445,
762,2023/9/8,12:41,41-40.61N,141-36.67E,177,25.374,
763,2023/9/8,12:42,41-40.37N,141-36.68E,176,25.331,
764,2023/9/8,12:43,41-40.12N,141-36.70E,176,25.307,
765,2023/9/8,12:44,41-39.88N,141-36.72E,177,25.339,
766,2023/9/8,12:45,41-39.64N,141-36.73E,177,25.344,
767,2023/9/8,12:46,41-39.39N,141-36.74E,176,25.308,
768,2023/9/8,12:47,41-39.15N,141-36.76E,177,25.265,
769,2023/9/8,12:48,41-38.90N,141-36.77E,177,25.197,
770,2023/9/8,12:49,41-38.66N,141-36.78E,177,25.14,
771,2023/9/8,12:50,41-38.41N,141-36.78E,181,25.162,
772,2023/9/8,12:51,41-38.16N,141-36.76E,187,25.094,
773,2023/9/8,12:52,41-37.91N,141-36.70E,188,25.049,
774,2023/9/8,12:53,41-37.67N,141-36.66E,186,25.163,
775,2023/9/8,12:54,41-37.43N,141-36.63E,186,25.123,
776,2023/9/8,12:55,41-37.19N,141-36.58E,188,25.102,
777,2023/9/8,12:56,41-36.92N,141-36.53E,189,25.142,
778,2023/9/8,12:57,41-36.70N,141-36.47E,190,25.275,
779,2023/9/8,12:58,41-36.45N,141-36.41E,191,25.384,
780,2023/9/8,12:59,41-36.21N,141-36.34E,191,25.358,
781,2023/9/8,13:00,41-35.96N,141-36.28E,191,25.299,
782,2023/9/8,13:01,41-35.68N,141-36.20E,192,25.227,
783,2023/9/8,13:02,41-35.44N,141-36.13E,192,25.077,
784,2023/9/8,13:03,41-35.19N,141-36.06E,192,25.017,
785,2023/9/8,13:04,41-34.99N,141-35.99E,192,24.904,
786,2023/9/8,13:05,41-34.75N,141-35.92E,193,24.86,
787,2023/9/8,13:06,41-34.51N,141-35.84E,192,24.766,
788,2023/9/8,13:07,41-34.27N,141-35.77E,193,24.643,
789,2023/9/8,13:08,41-34.02N,141-35.68E,194,24.586,
790,2023/9/8,13:09,41-33.78N,141-35.61E,193,24.588,
791,2023/9/8,13:10,41-33.54N,141-35.52E,194,24.57,
792,2023/9/8,13:11,41-33.28N,141-35.44E,193,24.55,
793,2023/9/8,13:12,41-33.05N,141-35.36E,194,24.476,
794,2023/9/8,13:13,41-32.80N,141-35.28E,194,24.394,
795,2023/9/8,13:14,41-32.57N,141-35.20E,193,24.384,
796,2023/9/8,13:15,41-32.33N,141-35.12E,194,24.368,
797,2023/9/8,13:16,41-32.08N,141-35.04E,194,24.349,
798,2023/9/8,13:17,41-31.85N,141-34.96E,194,24.315,
799,2023/9/8,13:18,41-31.60N,141-34.87E,194,24.255,
800,2023/9/8,13:19,41-31.37N,141-34.80E,193,24.267,
801,2023/9/8,13:20,41-31.13N,141-34.71E,194,24.255,
802,2023/9/8,13:21,41-30.89N,141-34.63E,193,24.235,
803,2023/9/8,13:22,41-30.66N,141-34.55E,194,24.236,
804,2023/9/8,13:23,41-30.42N,141-34.47E,195,24.28,
805,2023/9/8,13:24,41-30.18N,141-34.39E,194,24.319,
806,2023/9/8,13:25,41-29.94N,141-34.30E,194,24.244,
807,2023/9/8,13:26,41-29.70N,141-34.22E,195,24.235,
808,2023/9/8,13:27,41-29.47N,141-34.13E,194,24.315,
809,2023/9/8,13:28,41-29.22N,141-34.05E,194,24.419,
810,2023/9/8,13:29,41-28.98N,141-33.96E,195,24.438,
811,2023/9/8,13:30,41-28.75N,141-33.88E,194,24.442,
812,2023/9/8,13:31,41-28.51N,141-33.80E,195,24.436,
813,2023/9/8,13:32,41-28.28N,141-33.71E,194,24.405,
814,2023/9/8,13:33,41-28.04N,141-33.63E,195,24.383,
815,2023/9/8,13:34,41-27.80N,141-33.54E,195,24.448,
816,2023/9/8,13:35,41-27.56N,141-33.45E,195,24.51,
817,2023/9/8,13:36,41-27.32N,141-33.37E,194,24.535,
818,2023/9/8,13:37,41-27.09N,141-33.28E,195,24.524,
819,2023/9/8,13:38,41-26.85N,141-33.19E,196,24.527,
820,2023/9/8,13:39,41-26.61N,141-33.10E,195,24.513,
821,2023/9/8,13:40,41-26.38N,141-33.02E,195,24.493,
822,2023/9/8,13:41,41-26.13N,141-32.93E,195,24.463,
823,2023/9/8,13:42,41-25.91N,141-32.84E,195,24.456,
824,2023/9/8,13:43,41-25.67N,141-32.75E,195,24.527,
825,2023/9/8,13:44,41-25.43N,141-32.66E,195,24.565,
826,2023/9/8,13:45,41-25.19N,141-32.57E,196,24.564,
827,2023/9/8,13:46,41-24.96N,141-32.48E,196,24.574,
828,2023/9/8,13:47,41-24.72N,141-32.39E,195,24.574,
829,2023/9/8,13:48,41-24.48N,141-32.30E,196,24.578,
830,2023/9/8,13:49,41-24.24N,141-32.21E,195,24.612,
831,2023/9/8,13:50,41-24.00N,141-32.11E,196,24.647,
832,2023/9/8,13:51,41-23.76N,141-32.02E,196,24.646,
833,2023/9/8,13:52,41-23.52N,141-31.93E,195,24.663,
834,2023/9/8,13:53,41-23.28N,141-31.84E,196,24.726,
835,2023/9/8,13:54,41-23.04N,141-31.75E,196,24.781,
836,2023/9/8,13:55,41-22.81N,141-31.67E,195,24.82,
837,2023/9/8,13:56,41-22.56N,141-31.57E,196,24.858,
838,2023/9/8,13:57,41-22.33N,141-31.49E,195,24.874,
839,2023/9/8,13:58,41-22.09N,141-31.40E,195,24.848,
840,2023/9/8,13:59,41-21.84N,141-31.31E,195,24.73,
841,2023/9/8,14:00,41-21.61N,141-31.22E,196,24.661,
842,2023/9/8,14:01,41-21.37N,141-31.13E,194,24.58,
843,2023/9/8,14:02,41-21.13N,141-31.05E,195,24.557,
844,2023/9/8,14:03,41-20.90N,141-31.01E,181,24.561,
845,2023/9/8,14:04,41-20.66N,141-31.05E,169,24.573,
846,2023/9/8,14:05,41-20.43N,141-31.12E,167,24.584,
847,2023/9/8,14:06,41-20.18N,141-31.19E,167,24.588,
848,2023/9/8,14:07,41-19.94N,141-31.27E,166,24.585,
849,2023/9/8,14:08,41-19.71N,141-31.35E,167,24.572,
850,2023/9/8,14:09,41-19.46N,141-31.42E,168,24.571,
851,2023/9/8,14:10,41-19.22N,141-31.49E,167,24.566,
852,2023/9/8,14:11,41-18.98N,141-31.56E,167,24.557,
853,2023/9/8,14:12,41-18.73N,141-31.63E,168,24.565,
854,2023/9/8,14:13,41-18.49N,141-31.69E,168,24.633,
855,2023/9/8,14:14,41-18.24N,141-31.76E,167,24.718,
856,2023/9/8,14:15,41-18.00N,141-31.83E,168,24.778,
857,2023/9/8,14:16,41-17.75N,141-31.90E,168,24.809,
858,2023/9/8,14:17,41-17.50N,141-31.96E,168,24.817,
859,2023/9/8,14:18,41-17.26N,141-32.03E,169,24.85,
860,2023/9/8,14:19,41-17.02N,141-32.09E,169,24.857,
861,2023/9/8,14:20,41-16.78N,141-32.15E,169,24.764,
862,2023/9/8,14:21,41-16.53N,141-32.22E,168,24.72,
863,2023/9/8,14:22,41-16.29N,141-32.28E,169,24.691,
864,2023/9/8,14:23,41-16.05N,141-32.35E,168,24.684,
865,2023/9/8,14:24,41-15.80N,141-32.41E,168,24.688,
866,2023/9/8,14:25,41-15.57N,141-32.48E,169,24.704,
867,2023/9/8,14:26,41-15.32N,141-32.55E,167,24.71,
868,2023/9/8,14:27,41-15.07N,141-32.62E,167,24.735,
869,2023/9/8,14:28,41-14.84N,141-32.68E,168,24.743,
870,2023/9/8,14:29,41-14.60N,141-32.75E,167,24.784,
871,2023/9/8,14:30,41-14.36N,141-32.82E,168,24.782,
872,2023/9/8,14:31,41-14.12N,141-32.88E,168,24.74,
873,2023/9/8,14:32,41-13.88N,141-32.96E,167,24.677,
874,2023/9/8,14:33,41-13.65N,141-33.03E,167,24.651,
875,2023/9/8,14:34,41-13.41N,141-33.10E,167,24.59,
876,2023/9/8,14:35,41-13.17N,141-33.16E,167,24.538,
877,2023/9/8,14:36,41-12.94N,141-33.24E,166,24.552,
878,2023/9/8,14:37,41-12.70N,141-33.30E,167,24.627,
879,2023/9/8,14:38,41-12.46N,141-33.38E,167,24.705,
880,2023/9/8,14:39,41-12.23N,141-33.44E,167,24.789,
881,2023/9/8,14:40,41-12.00N,141-33.51E,167,24.835,
882,2023/9/8,14:41,41-11.77N,141-33.58E,168,24.862,
883,2023/9/8,14:42,41-11.54N,141-33.64E,167,24.851,
884,2023/9/8,14:43,41-11.30N,141-33.71E,168,24.819,
885,2023/9/8,14:44,41-11.07N,141-33.78E,168,24.793,
886,2023/9/8,14:45,41-10.83N,141-33.85E,167,24.779,
887,2023/9/8,14:46,41-10.60N,141-33.91E,168,24.769,
888,2023/9/8,14:47,41-10.37N,141-33.97E,168,24.756,
889,2023/9/8,14:48,41-10.13N,141-34.04E,168,24.751,
890,2023/9/8,14:49,41-09.89N,141-34.11E,167,24.733,
891,2023/9/8,14:50,41-09.65N,141-34.17E,167,24.723,
892,2023/9/8,14:51,41-09.42N,141-34.23E,168,24.74,
893,2023/9/8,14:52,41-09.19N,141-34.29E,168,24.767,
894,2023/9/8,14:53,41-08.95N,141-34.36E,169,24.786,
895,2023/9/8,14:54,41-08.71N,141-34.42E,168,24.806,
896,2023/9/8,14:55,41-08.47N,141-34.48E,168,24.821,
897,2023/9/8,14:56,41-08.22N,141-34.55E,167,24.841,
898,2023/9/8,14:57,41-08.00N,141-34.62E,166,24.852,
899,2023/9/8,14:58,41-07.76N,141-34.70E,165,24.861,
900,2023/9/8,14:59,41-07.52N,141-34.78E,166,24.863,
901,2023/9/8,15:00,41-07.29N,141-34.85E,166,24.852,
902,2023/9/8,15:01,41-07.05N,141-34.93E,165,24.807,
903,2023/9/8,15:02,41-06.83N,141-35.00E,165,24.752,
904,2023/9/8,15:03,41-06.59N,141-35.08E,166,24.758,
905,2023/9/8,15:04,41-06.35N,141-35.16E,165,24.767,
906,2023/9/8,15:05,41-06.12N,141-35.23E,166,24.783,
907,2023/9/8,15:06,41-05.88N,141-35.31E,165,24.808,
908,2023/9/8,15:07,41-05.65N,141-35.39E,165,24.822,
909,2023/9/8,15:08,41-05.41N,141-35.47E,165,24.827,
910,2023/9/8,15:09,41-05.18N,141-35.55E,165,24.825,
911,2023/9/8,15:10,41-04.94N,141-35.63E,165,24.815,
912,2023/9/8,15:11,41-04.70N,141-35.71E,165,24.792,
913,2023/9/8,15:12,41-04.47N,141-35.79E,165,24.79,
914,2023/9/8,15:13,41-04.24N,141-35.87E,165,24.8,
915,2023/9/8,15:14,41-04.00N,141-35.95E,165,24.811,
916,2023/9/8,15:15,41-03.76N,141-36.03E,165,24.826,
917,2023/9/8,15:16,41-03.53N,141-36.11E,165,24.838,
918,2023/9/8,15:17,41-03.30N,141-36.19E,166,24.845,
919,2023/9/8,15:18,41-03.06N,141-36.27E,165,24.847,
920,2023/9/8,15:19,41-02.82N,141-36.35E,166,24.843,
921,2023/9/8,15:20,41-02.57N,141-36.43E,165,24.836,
922,2023/9/8,15:21,41-02.34N,141-36.51E,165,24.828,
923,2023/9/8,15:22,41-02.10N,141-36.59E,165,24.817,
924,2023/9/8,15:23,41-01.87N,141-36.66E,166,24.84,
925,2023/9/8,15:24,41-01.63N,141-36.74E,166,24.864,
926,2023/9/8,15:25,41-01.39N,141-36.82E,166,24.879,
927,2023/9/8,15:26,41-01.15N,141-36.90E,165,24.877,
928,2023/9/8,15:27,41-00.90N,141-36.99E,163,24.855,
929,2023/9/8,15:28,41-00.67N,141-37.08E,163,24.809,
930,2023/9/8,15:29,41-00.43N,141-37.17E,164,24.754,
931,2023/9/8,15:30,41-00.20N,141-37.26E,164,24.732,
932,2023/9/8,15:31,40-59.96N,141-37.35E,163,24.736,
933,2023/9/8,15:32,40-59.71N,141-37.44E,164,24.747,
934,2023/9/8,15:33,40-59.49N,141-37.52E,164,24.745,
935,2023/9/8,15:34,40-59.24N,141-37.62E,163,24.736,
936,2023/9/8,15:35,40-59.02N,141-37.71E,162,24.699,
937,2023/9/8,15:36,40-58.78N,141-37.81E,161,24.654,
938,2023/9/8,15:37,40-58.54N,141-37.91E,162,24.566,
939,2023/9/8,15:38,40-58.31N,141-38.01E,161,24.437,
940,2023/9/8,15:39,40-58.07N,141-38.11E,162,24.268,
941,2023/9/8,15:40,40-57.84N,141-38.21E,162,24.189,
942,2023/9/8,15:41,40-57.61N,141-38.31E,162,24.184,
943,2023/9/8,15:42,40-57.37N,141-38.40E,162,24.196,
944,2023/9/8,15:43,40-57.14N,141-38.50E,162,24.225,
945,2023/9/8,15:44,40-56.91N,141-38.61E,160,24.256,
946,2023/9/8,15:45,40-56.69N,141-38.72E,158,24.289,
947,2023/9/8,15:46,40-56.46N,141-38.85E,157,24.323,
948,2023/9/8,15:47,40-56.23N,141-38.97E,157,24.333,
949,2023/9/8,15:48,40-55.97N,141-39.11E,157,24.314,
950,2023/9/8,15:49,40-55.73N,141-39.23E,157,24.293,
951,2023/9/8,15:50,40-55.51N,141-39.35E,157,24.212,
952,2023/9/8,15:51,40-55.28N,141-39.48E,157,23.994,
953,2023/9/8,15:52,40-55.04N,141-39.61E,157,23.89,
954,2023/9/8,15:53,40-54.83N,141-39.73E,157,23.87,
955,2023/9/8,15:54,40-54.59N,141-39.86E,157,23.847,
956,2023/9/8,15:55,40-54.40N,141-39.97E,156,23.848,
957,2023/9/8,15:56,40-54.17N,141-40.09E,157,23.864,
958,2023/9/8,15:57,40-53.94N,141-40.22E,157,23.9,
959,2023/9/8,15:58,40-53.69N,141-40.36E,157,23.952,
960,2023/9/8,15:59,40-53.45N,141-40.49E,157,24.005,
961,2023/9/8,16:00,40-53.23N,141-40.61E,157,24.046,
962,2023/9/8,16:01,40-52.99N,141-40.74E,157,24.076,
963,2023/9/8,16:02,40-52.77N,141-40.87E,157,24.086,
964,2023/9/8,16:03,40-52.55N,141-40.98E,157,24.101,
965,2023/9/8,16:04,40-52.31N,141-41.11E,157,24.114,
966,2023/9/8,16:05,40-52.09N,141-41.23E,157,24.115,
967,2023/9/8,16:06,40-51.86N,141-41.35E,159,24.12,
968,2023/9/8,16:07,40-51.66N,141-41.45E,159,24.124,
969,2023/9/8,16:08,40-51.43N,141-41.56E,159,24.126,
970,2023/9/8,16:09,40-51.19N,141-41.67E,159,24.14,
971,2023/9/8,16:10,40-50.97N,141-41.77E,159,24.149,
972,2023/9/8,16:11,40-50.74N,141-41.89E,160,24.156,
973,2023/9/8,16:12,40-50.50N,141-42.00E,159,24.142,
974,2023/9/8,16:13,40-50.27N,141-42.11E,159,24.121,
975,2023/9/8,16:14,40-50.02N,141-42.23E,159,24.084,
976,2023/9/8,16:15,40-49.80N,141-42.33E,159,24.032,
977,2023/9/8,16:16,40-49.56N,141-42.46E,159,23.991,
978,2023/9/8,16:17,40-49.33N,141-42.57E,160,23.972,
979,2023/9/8,16:18,40-49.11N,141-42.68E,160,23.991,
980,2023/9/8,16:19,40-48.87N,141-42.79E,159,24.013,
981,2023/9/8,16:20,40-48.64N,141-42.90E,159,24.011,
982,2023/9/8,16:21,40-48.41N,141-43.02E,159,23.991,
983,2023/9/8,16:22,40-48.17N,141-43.13E,160,23.974,
984,2023/9/8,16:23,40-47.95N,141-43.24E,159,23.965,
985,2023/9/8,16:24,40-47.71N,141-43.35E,160,23.93,
986,2023/9/8,16:25,40-47.48N,141-43.45E,160,23.909,
987,2023/9/8,16:26,40-47.25N,141-43.56E,160,23.663,
988,2023/9/8,16:27,40-47.01N,141-43.68E,159,23.644,
989,2023/9/8,16:28,40-46.78N,141-43.79E,159,23.628,
990,2023/9/8,16:29,40-46.52N,141-43.92E,159,23.665,
991,2023/9/8,16:30,40-46.28N,141-44.04E,159,23.565,
992,2023/9/8,16:31,40-46.06N,141-44.15E,158,23.477,
993,2023/9/8,16:32,40-45.83N,141-44.28E,158,23.414,
994,2023/9/8,16:33,40-45.60N,141-44.40E,158,23.34,
995,2023/9/8,16:34,40-45.40N,141-44.50E,158,23.299,
996,2023/9/8,16:35,40-45.17N,141-44.62E,158,23.269,
997,2023/9/8,16:36,40-44.94N,141-44.75E,158,23.213,
998,2023/9/8,16:37,40-44.71N,141-44.87E,158,23.141,